This demonstration page uses our WeatherBlox Daily Observations layout. Learn more.

Left ArrowRight Arrow

Hourly Observations for December 15, 2018

Temp ( °F °C ) Dew Point ( °F °C ) Humidity (%) Winds ( mph kmh ) Pressure ( in mb ) Visibility ( mi km ) Precip ( " mm )
12:57 am 00:57 Clear 25 -3.9 23 -5 92 92 Calm 30.21 1023 10 16 0.00 0.00
1:57 am 01:57 Clear 24 -4.4 22 -5.6 91 91 WNW 3 6 30.19 1023 10 16 0.00 0.00
2:57 am 02:57 Clear 24 -4.4 22 -5.6 91 91 Calm 30.19 1022 10 16 0.00 0.00
3:57 am 03:57 Clear 24 -4.4 22 -5.6 91 91 S 6 9 30.19 1023 10 16 0.00 0.00
4:57 am 04:57 Clear 23 -5 22 -5.6 96 96 S 6 9 30.19 1022 10 16 0.00 0.00
5:57 am 05:57 Clear 24 -4.4 23 -5 96 96 SSW 6 9 30.18 1022 10 16 0.00 0.00
6:57 am 06:57 Clear 24 -4.4 22 -5.6 91 91 SW 5 7 30.18 1022 10 16 0.00 0.00
7:57 am 07:57 Sunny 23 -5 21 -6.1 92 92 SSW 7 11 30.19 1022 10 16 0.00 0.00
8:57 am 08:57 Sunny 28 -2.2 26 -3.3 92 92 SSE 8 13 30.17 1022 10 16 0.00 0.00
9:57 am 09:57 Sunny 35 1.7 29 -1.7 78 78 SSW 10 17 30.17 1022 10 16 0.00 0.00
10:57 am 10:57 Sunny 41 5 28 -2.2 60 60 SSW 13 20 30.16 1021 10 16 0.00 0.00
11:57 am 11:57 Sunny 43 6.1 28 -2.2 56 56 SSW 17 28 30.14 1021 10 16 0.00 0.00
12:57 pm 12:57 Sunny 44 6.7 29 -1.7 55 55 SSW 12 19 30.12 1020 10 16 0.00 0.00
1:57 pm 13:57 Sunny 44 6.7 30 -1.1 58 58 SSW 13 20 30.10 1019 10 16 0.00 0.00
2:57 pm 14:57 Sunny 43 6.1 31 -0.6 63 63 S 10 17 30.10 1019 10 16 0.00 0.00
3:57 pm 15:57 Sunny 43 6.1 30 -1.1 60 60 SSW 12 19 30.11 1020 10 16 0.00 0.00
4:57 pm 16:57 Sunny 40 4.4 29 -1.7 65 65 SSW 7 11 30.13 1020 10 16 0.00 0.00
5:57 pm 17:57 Clear 38 3.3 29 -1.7 70 70 SSW 12 19 30.13 1020 10 16 0.00 0.00
6:57 pm 18:57 Clear 39 3.9 28 -2.2 65 65 SW 13 20 30.14 1021 10 16 0.00 0.00
7:57 pm 19:57 Clear 38 3.3 28 -2.2 68 68 WSW 6 9 30.17 1022 10 16 0.00 0.00
8:57 pm 20:57 Clear 38 3.3 28 -2.2 68 68 WNW 3 6 30.18 1022 10 16 0.00 0.00
9:57 pm 21:57 Clear 35 1.7 27 -2.8 72 72 Calm 30.19 1022 10 16 0.00 0.00
10:57 pm 22:57 Clear 33 0.6 27 -2.8 78 78 NW 5 7 30.20 1023 10 16 0.00 0.00
11:57 pm 23:57 Clear 31 -0.6 27 -2.8 85 85 NW 8 13 30.22 1023 10 16 0.00 0.00

Powered by AerisWeather